Regional Weather Roundup
Issued by NWS Midland/Odessa, TX

Skip options and go directly to product.
Home | Oldest Version | Previous Version | Current Version | All | Text Only | Save Text | Print | Product List | Glossary Off

Skip product version selection by date and time.   

919
ASUS44 KMAF 270010
RWRMAF
MIDLAND AREA WEATHER ROUNDUP
NATIONAL WEATHER SERVICE MIDLAND TX
600 PM CST SUN FEB 26 2017

...IN SOUTHWEST TEXAS AND SOUTHEAST NEW MEXICO...

CITY           SKY/WX    TMP DP  RH WIND       PRES   REMARKS
ALPINE         CLOUDY    71  11  10 SW7       29.93S
ANDREWS        CLOUDY    64  18  17 W15G21    29.85R
ARTESIA        PTCLDY    64  18  16 W23       29.84R
BIG SPRING     CLOUDY    68  16  13 SW8       29.85S
CARLSBAD       PTCLDY    67  18  15 W13       29.81S
DRYDEN           N/A     73  33  23 SE10      29.81R
FORT STOCKTON  CLEAR     74  16  11 W6        29.83S
GUAD PASS      CLOUDY    57  17  21 SW29G45     N/A
HOBBS          PTCLDY    66  16  14 SW23      29.83S
MARFA          CLOUDY    66  11  11 SW10      29.90F
MIDLAND AIRPK  PTCLDY    70  19  14 W14G23    29.84S
MIDLAND INTL   PTCLDY    69  18  14 W15       29.83R
ODESSA         MOCLDY    69  15  12 W16G28    29.84R
PECOS          PTCLDY    73  19  13 W20       29.79F
PRESIDIO       FAIR      78  15   9 CALM      29.81S
SEMINOLE       CLOUDY    64  16  15 SW10G21   29.85S
SNYDER         CLOUDY    67  22  17 CALM      29.84S
WINK           CLOUDY    71  18  13 W16       29.80R
$$
...OTHER STATIONS IN TEXAS...

CITY           SKY/WX    TMP DP  RH WIND       PRES   REMARKS
ABILENE        CLOUDY    68  37  32 NE5       29.83R
AMARILLO       MOCLDY    54  12  18 NE6       29.83R
AUSTIN         CLOUDY    70  63  78 SE14      29.85S
BROWNSVILLE    PTCLDY    75  66  73 SE18G28   29.86R
CORPUS CHRISTI PTCLDY    75  67  76 SE28G33   29.84S
DALLAS FTW     CLOUDY    62  53  72 S8        29.86R
DEL RIO        CLOUDY    73  52  47 SE6       29.81S
EL PASO        PTSUNNY   66  21  18 W16       29.84R
HOUSTON INT    MOCLDY    69  60  73 SE20      29.94S
LUBBOCK        MOCLDY    62  12  14 NW8       29.85R
SAN ANGELO     CLOUDY    72  37  28 SW5       29.83R
SAN ANTONIO    MOCLDY    74  63  68 CALM      29.84R
WACO           CLOUDY    63  56  78 SW6       29.88R
WICHITA FALLS  NOT AVBL
$$
...OTHER LOCATIONS IN NEW MEXICO...

CITY           SKY/WX    TMP DP  RH WIND       PRES   REMARKS
ALAMAGORDO     PTSUNNY   63  19  19 NW14G23   29.86R
ALBUQUERQUE    PTSUNNY   42  23  46 S7        29.89F WCI  38
CANNON AFB     CLOUDY    54  19  25 W17G28    29.85S
CLOVIS         CLOUDY    54  21  28 SW25G31   29.86R
HOLLOMAN AFB   CLOUDY    61  18  19 N21       29.88R
ROSWELL        CLEAR     64  14  14 NW17G26     N/A
RUIDOSO        PTSUNNY   39  23  52 W13G25    29.95R WCI  32
SANTA FE       PTSUNNY   40  19  43 W6        29.88S WCI  36
TRUTH OR CONSE MOSUNNY   53  24  32 W17       29.89R
TUCUMCARI      CLEAR     57  12  17 W26G35    29.80R
$$

  • National Weather Service
  • Southern Region Headquarters
  • 819 Taylor Street, Room 10A06
  • Fort Worth, TX 76102
  • Page Author: NWS Fort Worth
  • Web Master: SR-SRH.Webmaster@noaa.gov
  •  
  • Page last modified: 30-Sep-2016 6:36 PM UTC
USA.gov is the U.S. government's official web portal to all federal, state and local government web resources and services.